Location: Makanda
(37.6176°N, 89.2090°W)
Time: 22:31:39
(UTC+00:00)

Cosmos 405 Rocket - Pass Details

Date: 23 September 2019
Orbit: 491 x 554 km, 81.3° (Epoch: 16 October)

Event Time Altitude Azimuth Distance (km) Brightness Sun altitude
Rises 00:49:07 0° 174° (S) 2,552 6.1 -11.7°
Reaches altitude 10° 00:51:16 10° 168° (SSE) 1,675 5.1 -12.1°
Maximum altitude 00:54:46 45° 95° (E) 685 2.8 -12.8°
Drops below altitude 10° 00:58:19 10° 22° (NNE) 1,699 5.2 -13.5°
Sets 01:00:30 0° 16° (NNE) 2,593 6.2 -13.9°
